Location: La Pernelle
(49.6188°N, 1.2999°W)
Time: 11:14:05
(UTC+00:00)

Meteor 2-20 - Pass Details

Date: 28 October 2021
Orbit: 939 x 958 km, 82.5° (Epoch: 08 December)

Event Time Altitude Azimuth Distance (km) Brightness Sun altitude
Rises 17:52:11 0° 336° (NNW) 3,614 7.7 -10.7°
Reaches altitude 10° 17:55:55 10° 313° (NW) 2,665 7.4 -11.3°
Maximum altitude 17:58:55 14° 283° (WNW) 2,368 7.7 -11.7°
Drops below altitude 10° 18:01:54 10° 253° (WSW) 2,659 8.2 -12.2°
Sets 18:05:39 0° 230° (SW) 3,600 8.5 -12.8°
